sat.trackr.live / text

‹ back to catalog

STARLINK-32777

NORAD 62525 · 2025-004Q

PAYLOAD ACTIVE UNKNOWN

§ Identity

Operator
Country
US
Launch date
2025-01-08
Launch site
AFETR
Launch vehicle
Mass (kg)
RCS (m²)

Purposes: comms

External: N2YO · Heavens-Above · Gunter

§ Orbital elements

Epoch: 2026-09-20T12:50:36.502944Z

Period
94.27 min
Inclination
43.0010°
Eccentricity
0.0000885
Mean motion
15.27581206 rev/d
Perigee alt
482.4 km
Apogee alt
483.7 km
Semi-major
6,861.2 km
B*
5.5551e-4
RAAN
199.8368°
Arg perigee
278.8541°
Mean anomaly
81.2210°
Rev number
9,625

§ Raw data

STARLINK-327771 62525U 25004Q   26263.53514471  .00015056  00000+0  55551-3 0  99902 62525  43.0010 199.8368 0000885 278.8541  81.2210 15.27581206 96253

JSON: /api/v1/satellites/62525 · /tle

For live sub-satellite position, see the globe view (requires WebGL).

§ Visibility from observer

Set your observer location to see the next 7 days of passes ≥ 10°. The values pass through the URL so the page stays shareable.

No JS? Fill the form by hand. The geolocation button needs JavaScript.